EW6338 Weather Reports


Display with metric or nautical units.
time (UTC)temp
F
wind
direction
speed
MPH
gust
MPH
rain 1hr
in
rain 24hr
in
rain mn
in
humidity
%
barometer
mb
20180424103017 39 255 0.0 1.0 0.00 0.00 0.00 62 1028.2
20180424101520 37 198 0.0 0.0 0.00 0.00 0.00 64 1027.8
20180424100017 38 157 0.0 0.0 0.00 0.00 0.00 62 1027.7
20180424094515 39 255 0.0 0.0 0.00 0.00 0.00 59 1027.7
20180424093012 39 239 0.0 1.0 0.00 0.00 0.00 59 1027.7
20180424091511 39 171 0.0 0.0 0.00 0.00 0.00 58 1027.8
20180424090009 38 219 0.0 0.0 0.00 0.00 0.00 58 1027.9
20180424084508 40 219 0.0 1.0 0.00 0.00 0.00 56 1028.0
20180424083004 39 139 0.0 0.0 0.00 0.00 0.00 57 1028.0
20180424081500 40 138 0.0 0.0 0.00 0.00 0.00 52 1028.1
20180424080002 41 138 0.0 0.0 0.00 0.00 0.00 51 1028.0
20180424074455 42 278 0.0 0.0 0.00 0.00 0.00 49 1028.1
20180424072959 42 241 0.0 0.0 0.00 0.00 0.00 49 1028.4
20180424071451 43 249 0.0 0.0 0.00 0.00 0.00 46 1028.3
20180424065950 43 117 0.0 0.0 0.00 0.00 0.00 46 1028.0
20180424064450 43 121 0.0 2.0 0.00 0.00 0.00 45 1028.0
20180424062947 43 118 0.0 0.0 0.00 0.00 0.00 44 1028.2
20180424061445 44 231 0.0 1.0 0.00 0.00 0.00 44 1028.4
20180424055942 44 126 0.0 1.0 0.00 0.00 0.00 43 1028.4
20180424054439 45 146 0.0 1.0 0.00 0.00 0.00 41 1028.4
20180424052936 45 121 0.0 2.0 0.00 0.00 0.00 39 1028.6
20180424051435 45 65 0.0 3.0 0.00 0.00 0.00 38 1028.7
20180424045936 46 154 0.0 4.0 0.00 0.00 0.00 39 1028.9
20180424044433 45 200 0.0 3.0 0.00 0.00 0.00 39 1028.9
20180424042932 46 271 0.0 1.0 0.00 0.00 0.00 38 1028.9
20180424041429 46 218 0.0 2.0 0.00 0.00 0.00 39 1028.6
20180424035930 47 181 0.0 4.0 0.00 0.00 0.00 39 1028.9
20180424034427 47 174 0.0 3.0 0.00 0.00 0.00 38 1029.0
20180424032926 47 146 0.0 2.0 0.00 0.00 0.00 39 1028.9
20180424031425 48 234 0.0 4.0 0.00 0.00 0.00 39 1029.0
20180424025924 48 241 0.0 4.0 0.00 0.00 0.00 38 1029.1
20180424024425 49 173 0.0 5.0 0.00 0.00 0.00 38 1029.2
20180424022924 48 228 0.0 5.0 0.00 0.00 0.00 40 1029.2
20180424021425 49 176 0.0 3.0 0.00 0.00 0.00 39 1029.2
20180424015923 48 240 0.0 3.0 0.00 0.00 0.00 41 1029.0
20180424014422 48 203 0.0 1.0 0.00 0.00 0.00 41 1029.0
20180424012923 49 123 0.0 3.0 0.00 0.00 0.00 41 1029.3
20180424011421 48 153 0.0 1.0 0.00 0.00 0.00 40 1029.3
20180424005920 48 140 0.0 0.0 0.00 0.00 0.00 39 1029.3
20180424004420 48 131 0.0 2.0 0.00 0.00 0.00 37 1029.2
20180424002920 48 207 0.0 1.0 0.00 0.00 0.00 35 1028.9
20180424001420 48 143 0.0 0.0 0.00 0.00 0.00 34 1028.9
20180423235920 48 138 0.0 0.0 0.00 0.00 0.00 33 1028.6
20180423234421 49 297 0.0 1.0 0.00 0.00 0.00 32 1028.7
20180423232919 50 117 0.0 2.0 0.00 0.00 0.00 28 1028.7
20180423231416 51 134 0.0 5.0 0.00 0.00 0.00 26 1028.5
20180423225917 52 139 1.0 6.0 0.00 0.00 0.00 25 1028.4
20180423224419 53 141 2.0 5.0 0.00 0.00 0.00 24 1028.2
20180423222916 55 152 2.0 6.0 0.00 0.00 0.00 23 1028.4
20180423221418 57 131 1.0 5.0 0.00 0.00 0.00 23 1028.5
20180423215917 58 210 1.0 6.0 0.00 0.00 0.00 22 1028.4
20180423214413 59 141 2.0 4.0 0.00 0.00 0.00 22 1028.5
20180423212915 59 150 1.0 7.0 0.00 0.00 0.00 22 1028.6
20180423211412 60 254 0.0 4.0 0.00 0.00 0.00 22 1028.6
20180423205913 60 124 0.0 4.0 0.00 0.00 0.00 22 1028.6
20180423204411 60 131 3.0 8.0 0.00 0.00 0.00 25 1028.7
20180423202913 60 141 1.0 6.0 0.00 0.00 0.00 25 1028.6
20180423201409 60 137 2.0 10.0 0.00 0.00 0.00 24 1028.5
20180423195908 61 117 5.0 8.0 0.00 0.00 0.00 23 1028.7
20180423194410 62 205 1.0 6.0 0.00 0.00 0.00 23 1028.8
20180423192908 62 120 2.0 8.0 0.00 0.00 0.00 25 1028.9
20180423191409 62 341 2.0 6.0 0.00 0.00 0.00 26 1029.0
20180423185904 61 102 3.0 7.0 0.00 0.00 0.00 25 1029.3
20180423184403 62 89 3.0 8.0 0.00 0.00 0.00 24 1029.5
20180423182902 61 120 2.0 8.0 0.00 0.00 0.00 22 1029.8
20180423181401 62 83 3.0 7.0 0.00 0.00 0.00 21 1029.9
20180423175900 62 120 2.0 7.0 0.00 0.00 0.00 22 1029.9
20180423174359 64 18 0.0 2.0 0.00 0.00 0.00 20 1030.1
20180423172900 63 116 4.0 7.0 0.00 0.00 0.00 17 1030.1
20180423171357 62 132 0.0 6.0 0.00 0.00 0.00 18 1030.3
20180423165857 61 236 0.0 7.0 0.00 0.00 0.00 18 1030.5
20180423164356 62 248 0.0 3.0 0.00 0.00 0.00 20 1030.6
20180423162855 61 252 0.0 4.0 0.00 0.00 0.00 21 1030.7
20180423161353 60 39 2.0 5.0 0.00 0.00 0.00 21 1030.9
20180423155849 60 101 1.0 5.0 0.00 0.00 0.00 19 1031.2
20180423154347 59 110 0.0 4.0 0.00 0.00 0.00 19 1031.3
20180423152847 59 316 0.0 5.0 0.00 0.00 0.00 21 1031.4
20180423151345 58 314 0.0 5.0 0.00 0.00 0.00 21 1031.5
20180423145843 58 2 0.0 3.0 0.00 0.00 0.00 21 1031.6
20180423144342 57 41 3.0 6.0 0.00 0.00 0.00 21 1031.7
20180423142844 57 74 0.0 4.0 0.00 0.00 0.00 25 1031.9
20180423141339 56 13 0.0 5.0 0.00 0.00 0.00 23 1031.8
20180423135837 55 274 0.0 3.0 0.00 0.00 0.00 24 1031.8
20180423134335 55 297 1.0 3.0 0.00 0.00 0.00 28 1031.9
20180423132835 54 49 1.0 4.0 0.00 0.00 0.00 29 1032.0
20180423131330 54 48 0.0 2.0 0.00 0.00 0.00 30 1032.1
20180423125829 53 315 0.0 1.0 0.00 0.00 0.00 34 1032.0
20180423124327 51 43 0.0 0.0 0.00 0.00 0.00 42 1031.8
20180423122821 50 285 0.0 0.0 0.00 0.00 0.00 45 1031.7
20180423121316 47 259 0.0 1.0 0.00 0.00 0.00 46 1031.6
20180423115811 45 342 0.0 0.0 0.00 0.00 0.00 52 1031.6
20180423114311 41 268 0.0 0.0 0.00 0.00 0.00 56 1031.6
20180423112808 37 268 0.0 0.0 0.00 0.00 0.00 68 1031.6
20180423111306 34 265 0.0 0.0 0.00 0.00 0.00 79 1031.3
20180423105804 32 265 0.0 0.0 0.00 0.00 0.00 83 1031.3
20180423104304 31 265 0.0 0.0 0.00 0.00 0.00 83 1031.2